Regional Weather Roundup
Issued by NWS Midland/Odessa, TX

Skip options and go directly to product.
Home | Oldest Version | Previous Version | Current Version | All | Graphics & Text | Save Text | Print | Product List | Glossary On

Skip product version selection by date and time.   
458
ASUS44 KMAF 281810
RWRMAF
MIDLAND AREA WEATHER ROUNDUP
NATIONAL WEATHER SERVICE MIDLAND TX
100 PM CDT TUE APR 28 2015

...IN SOUTHWEST TEXAS AND SOUTHEAST NEW MEXICO...

CITY           SKY/WX    TMP DP  RH WIND       PRES   REMARKS
ALPINE         CLOUDY    48  34  57 N15G23    30.31F
ANDREWS        PTSUNNY   58  34  41 N21G26    30.22F
ARTESIA        SUNNY     63  27  25 N21G31    30.27F
BIG SPRING     CLOUDY    56  40  53 N18G25    30.22S
CARLSBAD       MOSUNNY   65  28  24 N14       30.25F
DRYDEN           N/A     58  41  53 NW17G25   30.19F
FORT STOCKTON  CLOUDY    51  38  60 N12       30.25F
GUAD PASS      SUNNY     54  25  32 NE21G36   30.28F
HOBBS          PTSUNNY   59  32  36 N21       30.25F
MARFA          CLOUDY    52  32  46 N17G24    30.27S
MIDLAND AIRPK  PTSUNNY   58  38  47 N21       30.21F
MIDLAND INTL   PTSUNNY   58  38  47 N22G30    30.21F
ODESSA         CLOUDY    56  36  47 N17G26    30.22F
PECOS          MOSUNNY   62  36  37 N12G18    30.24F
PRESIDIO       CLOUDY    62  35  35 NW9G20    30.22F
SEMINOLE       PTSUNNY   58  35  41 NE15G24   30.23F
SNYDER         CLOUDY    50  44  81 N16G23    30.20S
WINK           PTSUNNY   63  34  33 NE14G22   30.22F
$$
...OTHER STATIONS IN TEXAS...

CITY           SKY/WX    TMP DP  RH WIND       PRES   REMARKS
ABILENE        CLOUDY    53  45  74 N15       30.14F
AMARILLO       MOSUNNY   58  36  43 N21G29    30.25F
AUSTIN         CLOUDY    59  52  77 N15       30.02R
BROWNSVILLE    CLOUDY    75  53  46 NW16G25   29.95S
CORPUS CHRISTI MOSUNNY   72  54  53 NW21G29   29.96F
DALLAS FTW     DRIZZLE   54  49  83 N16G23    30.07F
DEL RIO        CLOUDY    65  43  44 NW20G28   30.13S
EL PASO        MOSUNNY   63  -9   5 W5        30.25F
HOUSTON INT    CLOUDY    69  59  70 N15       29.91S
LUBBOCK        CLOUDY    53  40  61 NE16G22   30.22F
SAN ANGELO     CLOUDY    55  45  68 N10       30.16S
SAN ANTONIO    CLOUDY    61  51  70 NW21G30   30.04R
WACO           CLOUDY    55  51  86 N15       30.04S
WICHITA FALLS  NOT AVBL
$$
...OTHER LOCATIONS IN NEW MEXICO...

CITY           SKY/WX    TMP DP  RH WIND       PRES   REMARKS
ALAMAGORDO     SUNNY     59  25  27 W5        30.26F
ALBUQUERQUE    MOSUNNY   56  33  42 VRB5      30.32F
CANNON AFB     MOSUNNY   56  32  40 NE17G24   30.26F
CLOVIS         SUNNY     55  32  41 NE22G30   30.27F
HOLLOMAN AFB   MOSUNNY   61  24  24 VRB6      30.24F
ROSWELL        SUNNY     62  30  29 N13G26    30.26F
RUIDOSO        MOSUNNY   46  25  42 NE10G17   30.35F
SANTA FE       SUNNY     51  27  39 VRB5G16   30.32F
TRUTH OR CONSE MOSUNNY   60  28  29 NE12G17   30.29F
TUCUMCARI      MOSUNNY   60  35  39 NE22G32   30.28S
$$

USA.gov is the U.S. government's official web portal to all federal, state and local government web resources and services.